Theta_e
289 290 291 292 294 295 296 295 294 294 294 293 292 291 290 289 289 289 289 289 288 288 287 286 286 286 285 285 284 283 283 283 283 283 283 282 282 282 282 281 281 281 281 281 281 281 281 281 280 280 280 280 279 279 279 279 280 279 279 279 279 278
289 289 290 291 292 293 294 294 293 292 293 292 291 291 290 289 288 288 288 288 288 287 287 286 286 285 285 284 283 283 283 283 282 282 281 282 282 282 281 281 281 281 281 281 281 281 280 280 280 280 279 279 279 279 279 279 279 278 278 278 278 278
288 288 289 290 291 292 293 293 292 292 292 291 291 289 288 288 288 288 288 287 287 287 286 285 285 284 284 283 283 283 283 282 282 282 282 282 281 281 281 281 281 281 281 280 280 280 279 279 279 279 279 279 278 278 278 278 278 278 278 278 277 277
287 287 288 289 289 290 291 292 292 291 291 291 290 289 288 287 287 287 288 287 287 286 286 285 284 284 283 283 282 282 282 281 281 281 281 281 281 281 281 281 280 280 280 280 280 279 279 279 279 278 278 278 278 277 278 278 278 277 277 277 276 276
287 287 288 288 289 290 291 290 291 291 290 290 289 288 288 287 287 287 287 286 286 285 285 284 284 283 282 282 282 281 281 281 280 281 281 280 280 281 280 280 280 279 280 279 279 279 278 279 278 278 277 278 278 277 277 277 277 277 276 276 276 276
286 287 287 287 288 289 289 290 290 291 290 290 289 288 288 287 287 286 286 286 285 285 284 284 283 282 282 281 282 281 280 280 280 280 280 280 280 280 280 280 279 279 279 279 279 278 278 278 278 277 277 278 278 277 277 277 277 277 277 277 276 275
285 286 287 288 288 289 289 290 290 290 290 289 289 289 288 287 287 286 285 285 284 284 283 283 283 282 281 281 281 280 280 280 280 280 280 280 279 280 279 279 279 279 279 279 279 278 278 278 277 277 277 277 278 277 277 277 277 277 277 276 276 276
286 286 287 287 288 288 289 289 289 289 289 289 289 288 288 287 286 286 285 284 284 283 283 283 282 282 281 281 281 280 280 280 280 280 280 280 279 279 279 279 279 279 279 279 279 278 278 278 277 277 277 277 277 277 277 277 276 276 276 276 276 276
285 286 286 287 288 288 289 289 289 289 289 288 288 288 288 287 286 285 285 284 284 283 283 283 282 282 282 281 281 280 280 280 280 280 280 280 279 279 279 279 279 279 279 278 278 278 278 277 277 277 276 276 276 276 276 276 276 276 276 276 276 276
285 285 286 286 287 288 288 289 289 289 288 288 288 287 287 287 286 285 285 284 284 283 283 283 283 282 282 281 281 280 280 280 280 280 280 280 279 279 279 278 278 278 278 278 278 278 277 277 277 276 276 276 276 276 276 276 276 276 276 275 276 276
285 285 285 286 286 287 287 288 288 288 288 288 287 287 287 286 286 285 285 284 284 284 283 283 283 283 282 282 281 281 280 281 281 280 280 280 279 279 279 279 279 278 277 277 277 277 277 277 276 276 276 275 276 276 276 276 276 276 275 275 275 275
286 286 285 285 286 287 287 287 288 288 287 287 287 286 287 286 285 285 285 285 284 284 284 283 283 282 282 282 281 281 281 281 280 280 280 279 279 279 279 279 278 278 277 277 277 276 276 276 276 277 279 278 276 276 276 276 276 276 276 275 275 275
286 285 285 285 286 286 287 288 288 288 287 287 286 286 286 286 285 285 285 285 285 284 284 283 283 283 282 282 282 282 281 281 280 280 280 279 279 279 278 278 278 277 277 277 276 276 276 276 276 279 281 281 280 277 277 276 276 276 276 276 275 275
286 286 286 286 286 286 287 287 288 287 287 287 286 286 285 285 285 285 285 285 285 284 283 283 283 282 282 282 282 281 281 281 280 280 280 279 279 278 278 278 278 278 277 277 276 276 275 276 278 281 282 282 282 280 277 277 276 276 276 276 275 275
287 287 287 287 286 286 287 287 287 287 287 287 286 285 284 285 285 285 285 285 285 284 284 284 283 283 283 282 282 281 281 280 280 279 279 279 279 278 278 278 278 277 277 276 276 275 276 275 280 281 283 283 283 282 279 277 277 276 276 276 275 275
289 288 288 288 287 287 287 287 287 287 287 287 286 285 284 284 284 285 285 285 285 284 284 284 283 283 283 282 282 281 280 280 279 280 280 279 279 278 278 278 278 277 276 276 276 276 276 275 279 282 283 284 284 284 281 277 277 277 276 276 275 275
290 288 287 287 286 286 286 286 287 286 286 285 285 285 284 284 284 284 285 285 285 285 284 284 283 283 283 282 282 281 280 280 280 280 280 279 279 278 278 278 277 277 277 277 276 276 275 275 280 283 284 285 285 285 283 277 277 276 276 276 275 275
291 289 288 286 286 285 285 285 286 285 285 285 285 284 284 284 284 284 284 284 284 284 284 284 283 283 282 282 281 281 280 280 280 279 280 279 279 279 278 278 278 277 277 277 276 276 275 275 281 283 284 285 286 286 284 279 277 276 275 275 275 275
289 288 286 285 285 285 285 285 285 285 284 284 284 284 284 284 284 284 284 284 284 284 284 284 283 283 282 282 281 281 280 280 280 280 279 279 279 278 278 278 278 278 277 277 276 276 276 276 280 283 284 285 286 286 283 281 278 277 276 275 275 274
285 285 285 284 284 284 284 284 285 284 283 283 283 283 283 283 284 284 284 284 284 284 284 284 284 283 283 282 281 281 281 281 281 280 279 279 278 278 278 278 277 277 277 277 276 276 276 276 278 282 284 285 286 285 283 282 279 278 277 277 276 274
285 284 284 284 283 283 283 284 284 283 283 283 282 283 283 283 283 283 284 284 284 284 284 284 284 283 283 282 282 281 281 281 281 280 279 279 279 278 278 278 277 277 277 277 277 278 277 277 278 282 283 284 286 285 283 282 280 279 278 277 277 276
283 283 283 283 283 282 283 283 283 283 282 282 282 282 283 283 284 285 285 285 284 284 284 284 283 283 283 282 282 282 281 281 280 280 279 279 279 279 278 278 278 277 277 277 277 277 277 277 277 278 283 284 285 286 284 282 280 279 278 277 277 277
284 283 283 283 282 282 283 283 283 282 282 282 281 282 283 284 284 285 284 284 284 284 283 284 284 283 283 283 282 282 281 281 281 280 279 279 279 279 278 277 277 277 277 276 276 276 276 276 275 276 280 283 284 285 285 282 281 280 280 279 278 277
282 282 281 281 282 282 282 283 282 282 282 281 281 282 283 284 284 284 284 284 283 283 283 283 283 284 283 283 282 281 281 281 281 280 280 279 278 278 277 276 276 276 275 274 274 274 274 275 276 274 278 281 283 284 285 283 282 281 280 279 278 277
282 281 281 281 281 282 283 283 282 281 281 281 282 283 283 284 284 284 284 283 283 283 283 283 283 283 283 282 282 281 281 280 279 278 278 277 276 276 275 274 274 273 273 273 273 272 272 272 273 277 275 279 281 283 284 285 284 284 281 278 277 277
280 280 279 281 281 282 283 283 282 282 282 282 283 283 283 283 283 283 283 283 283 282 282 282 282 282 282 282 281 281 279 277 277 276 276 275 275 274 274 273 272 272 272 272 273 272 272 271 271 275 277 276 279 281 282 283 284 284 282 279 278 278
279 279 279 279 280 282 283 283 282 281 282 282 283 283 283 283 283 283 282 282 282 282 282 281 281 280 279 279 279 278 277 275 274 274 272 273 273 273 273 273 272 272 273 273 273 273 273 272 271 270 274 277 278 279 281 282 282 283 283 281 281 280
278 278 278 276 277 279 279 281 282 281 282 281 282 282 283 282 282 282 281 281 280 280 278 277 276 277 277 277 278 278 277 275 275 275 273 273 273 273 273 273 272 272 272 272 273 273 273 271 270 270 269 273 276 277 279 280 281 281 281 281 281 281
278 277 277 276 273 275 275 276 278 281 279 279 280 280 281 281 280 279 277 277 276 276 276 276 276 275 275 275 276 276 275 275 275 275 273 273 273 273 273 273 272 272 272 272 272 272 271 269 269 269 268 267 269 270 272 275 276 279 279 279 278 279
278 277 276 275 273 273 274 275 275 276 276 275 276 277 278 278 277 277 276 275 275 275 276 276 272 274 275 274 275 275 274 274 275 275 274 273 274 273 272 272 272 272 272 272 272 271 269 270 269 269 268 267 266 267 268 268 269 270 271 273 274 275
277 277 276 274 272 272 271 270 270 271 274 274 274 276 277 276 275 275 273 273 274 273 274 275 274 275 274 274 273 273 274 275 274 275 274 271 274 275 274 273 273 273 273 273 272 271 270 270 270 271 273 270 271 268 267 266 267 267 268 270 274 272
277 275 274 273 272 272 271 269 268 268 270 272 273 275 275 274 273 273 272 272 273 272 272 272 272 271 273 273 273 272 268 272 276 274 274 271 274 277 278 277 273 272 271 271 272 272 273 272 270 276 277 277 277 276 276 274 273 273 270 271 274 274
275 274 273 272 271 271 270 269 268 268 268 270 272 274 274 274 274 272 271 271 271 272 272 271 271 270 270 271 272 271 271 269 269 278 278 277 276 277 279 279 279 278 276 272 270 269 276 277 277 278 278 278 278 278 278 278 278 278 277 277 274 273
275 275 273 272 272 271 269 268 266 266 266 267 270 273 274 274 274 273 272 271 270 271 271 271 271 270 270 269 269 270 270 271 269 268 275 278 277 278 278 279 279 279 279 278 276 270 267 273 277 277 278 278 279 279 279 279 279 279 279 279 279 275
275 273 272 272 271 270 269 267 265 265 265 265 268 272 274 273 274 272 271 270 270 270 270 269 269 269 269 268 267 267 268 269 269 270 268 270 277 278 278 278 279 279 279 279 280 280 277 275 276 278 279 279 279 279 279 279 279 279 280 280 277 275
273 272 272 271 270 269 268 266 263 262 261 263 266 271 273 272 272 272 271 270 270 269 269 268 268 268 268 268 268 268 268 268 269 269 269 268 265 267 272 275 277 277 277 278 279 279 279 279 279 279 279 279 279 279 279 279 278 279 279 278 276 275
272 271 270 270 269 268 267 263 261 260 260 262 265 268 268 268 268 267 266 266 267 268 268 267 268 267 266 266 265 265 265 265 263 265 264 265 266 265 265 261 262 268 273 273 274 276 277 277 278 278 278 278 279 279 280 280 277 275 275 276 276 275
271 269 268 268 267 265 263 260 260 259 259 260 264 267 267 266 267 267 267 266 266 265 266 266 265 265 265 264 263 262 262 262 263 264 262 262 261 261 260 261 261 260 265 271 272 274 275 276 276 276 277 277 278 278 278 275 274 274 273 273 274 273
Wind_Speed
10 11 11 10 10 10 11 10 11 10 10 11 12 14 15 15 12 11 9 10 9 10 11 12 11 9 8 8 10 9 10 11 10 10 9 8 8 8 8 7 7 7 6 6 7 6 7 6 6 6 5 4 4 3 3 3 3 5 5 4 5 5
9 11 11 12 12 11 10 10 9 11 11 12 12 10 10 11 11 11 11 11 10 9 9 10 10 11 11 10 10 9 9 8 11 11 10 9 8 8 8 7 7 7 8 6 7 7 7 7 6 6 6 5 3 4 4 4 4 5 6 5 3 4
8 9 8 8 6 7 8 9 12 12 11 12 12 14 13 13 13 13 12 11 11 11 12 10 9 9 8 9 11 9 8 8 9 8 8 8 8 8 8 8 8 8 7 8 7 7 7 8 7 6 6 5 5 4 4 5 5 6 5 5 6 4
7 7 7 7 8 9 11 11 10 11 12 12 12 11 12 13 12 13 12 11 10 12 12 11 9 9 9 11 9 8 8 9 8 9 9 10 8 8 9 9 8 7 8 8 7 7 7 7 7 7 6 6 6 5 4 5 6 6 5 5 6 5
8 9 11 11 12 12 12 11 11 12 12 12 12 13 13 13 13 12 11 11 11 12 10 11 11 10 10 11 9 10 10 8 8 8 9 9 9 7 7 8 8 8 8 7 7 7 7 7 7 6 6 6 7 7 7 6 6 7 7 6 6 6
6 8 10 10 10 11 12 12 12 12 12 13 12 14 13 12 11 11 11 10 10 11 11 11 9 10 12 11 9 11 10 9 8 7 8 8 7 9 7 7 8 8 8 8 7 7 7 7 7 6 6 7 8 7 7 7 6 5 5 6 6 6
9 10 10 11 11 10 11 12 12 12 12 11 12 12 12 12 11 11 11 11 11 10 9 9 9 9 12 11 10 12 11 10 9 8 9 9 8 8 8 7 7 8 8 8 9 8 8 8 8 8 7 6 6 6 5 6 6 6 6 6 6 6
8 8 10 10 11 12 11 11 11 11 11 12 12 12 11 11 10 11 11 11 12 11 12 11 9 10 10 12 12 11 10 11 9 9 7 8 9 9 7 9 8 7 9 7 8 7 8 8 7 7 7 6 6 6 5 5 6 6 5 5 6 6
11 12 11 11 10 11 11 11 11 12 12 12 12 11 12 11 11 12 12 12 13 12 12 12 9 9 10 10 10 9 9 9 9 9 9 9 10 9 9 8 8 7 7 7 7 8 7 7 7 6 6 6 5 6 7 6 6 5 4 4 5 5
9 11 12 11 11 9 10 11 12 12 13 13 12 11 11 10 11 12 13 12 12 12 13 11 10 9 8 9 8 10 10 10 9 9 9 10 11 12 11 10 9 8 7 7 7 7 6 6 6 6 6 5 5 6 7 7 6 6 5 4 4 4
12 11 11 11 10 12 12 11 11 11 10 10 11 11 12 12 12 13 13 13 13 12 11 10 9 8 9 9 10 12 12 12 12 11 11 11 10 9 11 10 10 9 8 6 7 7 6 6 6 6 6 7 7 7 7 7 7 6 6 5 5 4
10 10 10 11 14 13 13 13 13 13 13 12 11 12 11 11 13 13 12 13 13 11 10 11 10 10 10 10 12 12 12 11 11 11 12 12 11 10 10 10 10 10 11 10 9 8 8 8 7 8 13 11 8 7 6 6 6 6 5 5 5 5
9 8 11 14 15 16 15 14 12 11 12 12 12 13 11 11 12 13 13 13 12 11 11 11 12 11 13 12 12 10 12 12 11 11 10 10 10 11 11 10 11 11 11 12 12 11 8 7 6 13 15 14 14 8 7 6 5 5 5 6 6 7
11 12 14 16 16 15 13 13 13 12 14 12 12 11 10 12 12 13 13 12 12 12 13 13 14 14 14 14 12 12 11 10 10 10 10 10 10 9 8 11 12 11 10 8 8 8 8 8 10 16 16 16 17 13 8 5 5 6 6 6 6 6
14 16 15 13 13 15 16 13 11 15 13 12 11 10 11 13 12 12 12 12 12 13 13 13 13 13 11 11 10 10 10 10 10 10 10 11 10 8 10 12 11 11 10 10 10 10 9 8 13 16 17 17 17 17 11 5 5 6 6 7 7 7
9 11 14 14 13 13 10 12 13 10 9 10 10 13 12 12 11 11 11 11 12 12 12 12 11 12 11 11 11 10 11 11 12 11 9 9 9 10 10 10 11 10 10 11 11 10 9 9 13 17 17 17 18 18 14 7 6 6 6 7 7 8
12 10 9 11 10 8 10 10 10 9 10 11 12 11 12 11 11 11 10 11 10 10 10 11 11 10 9 10 10 10 11 11 10 10 10 10 12 12 12 12 12 11 11 10 10 10 9 8 14 17 18 18 19 18 14 6 6 5 5 6 8 9
14 14 12 6 9 10 11 11 10 11 11 11 13 12 12 12 12 12 11 11 11 11 11 11 10 11 11 11 11 11 12 11 12 12 10 9 8 7 6 6 7 10 11 10 10 9 9 7 16 17 19 19 18 19 10 7 7 7 7 8 7 8
7 8 6 8 9 10 11 10 11 11 11 11 11 11 11 12 12 12 12 11 11 12 12 13 13 12 12 12 12 11 11 11 11 9 7 9 8 8 9 9 9 8 9 10 9 9 8 8 14 19 19 19 20 15 9 9 7 8 9 9 8 7
3 4 8 9 9 10 10 11 12 12 11 11 11 12 12 12 13 12 12 12 12 12 12 12 12 12 12 12 13 13 11 9 6 8 8 10 10 10 9 7 6 5 6 8 9 10 10 9 12 19 19 20 22 17 12 8 7 7 9 9 8 7
8 8 8 10 11 9 11 12 13 12 12 12 12 12 12 12 11 11 12 12 11 11 10 10 10 10 11 12 12 12 12 12 11 8 7 7 7 7 6 6 6 5 5 7 8 7 10 9 11 19 20 22 22 17 10 8 6 6 8 6 6 6
7 7 10 11 11 11 13 12 12 12 12 11 11 12 12 13 13 11 9 9 10 10 10 11 13 12 13 13 11 10 10 8 8 9 9 8 7 7 6 7 7 9 7 7 7 9 10 10 8 10 19 19 19 20 11 8 6 9 10 7 7 6
7 9 9 8 10 11 11 11 11 10 9 10 10 11 11 10 8 9 10 10 10 9 10 9 11 12 10 10 10 10 9 8 9 9 9 9 7 7 7 8 7 8 7 7 8 8 8 8 8 7 14 17 18 19 16 9 9 8 7 6 7 6
6 7 6 7 11 11 10 11 11 9 10 9 11 10 7 9 9 9 9 9 9 9 9 10 8 9 9 9 9 10 9 8 9 9 10 8 8 9 9 8 7 7 7 6 7 7 7 6 9 6 10 15 17 17 19 11 9 9 7 8 9 7
8 7 8 8 9 10 9 11 11 9 9 11 10 8 9 9 9 9 9 9 10 10 10 9 11 10 8 9 10 11 10 8 9 8 8 8 8 9 9 8 7 7 6 5 5 5 6 5 7 11 9 13 15 16 16 18 12 11 8 9 11 11
7 7 6 7 7 8 9 11 11 10 11 9 7 8 8 9 9 9 10 10 10 10 9 10 10 9 9 10 10 9 9 9 8 8 8 8 8 7 8 6 6 6 6 7 6 5 5 5 4 8 12 11 16 16 16 17 18 16 9 7 9 7
9 9 7 5 7 6 7 7 11 10 10 7 8 9 10 10 10 10 9 9 9 9 8 8 8 8 8 8 9 9 8 8 8 8 5 7 6 7 7 7 6 8 7 6 7 6 5 4 5 4 9 13 13 16 17 18 19 18 18 13 11 10
8 10 10 6 5 6 5 5 9 11 8 7 8 9 10 10 11 10 10 9 8 8 8 9 6 7 8 9 8 9 9 10 9 8 7 7 7 7 7 7 7 7 6 7 6 5 4 4 4 6 5 8 8 10 16 18 18 18 18 18 14 15
10 9 9 8 3 5 5 5 3 6 8 8 8 9 10 10 10 9 8 9 8 7 9 10 8 7 6 7 6 6 6 7 7 7 8 8 8 7 6 6 7 6 6 7 6 4 3 4 4 5 4 4 5 6 7 8 10 13 15 12 10 12
10 11 9 9 5 5 5 5 6 6 8 7 8 8 9 9 9 10 9 9 8 8 8 8 10 10 7 7 7 7 6 6 7 8 9 10 9 8 7 7 7 7 8 7 5 4 4 5 4 4 6 6 5 4 4 5 4 5 4 5 7 7
10 9 10 8 5 5 6 5 5 5 7 7 7 9 10 9 8 8 8 7 7 7 6 7 8 7 8 7 6 5 5 9 9 8 5 3 6 8 9 8 7 6 5 6 5 6 5 4 6 7 6 6 9 8 6 5 6 5 4 8 12 8
11 12 10 7 5 7 7 6 5 4 4 5 6 8 10 10 9 8 8 7 7 7 7 6 7 6 7 7 7 6 3 3 4 4 5 5 5 7 5 6 6 5 5 6 5 5 6 5 3 4 9 11 12 14 14 12 11 11 8 9 13 9
10 12 11 8 7 8 8 7 5 5 4 4 5 7 9 10 9 7 7 7 7 8 7 7 7 6 6 6 7 6 6 5 3 2 5 6 5 7 8 8 7 7 8 6 4 3 6 6 5 5 5 7 9 10 11 12 12 13 13 13 7 6
10 12 12 8 8 9 8 8 5 4 3 3 5 7 8 8 9 9 7 7 6 7 7 6 7 7 7 6 5 6 6 6 5 1 3 5 6 5 7 6 7 7 7 9 7 4 1 4 6 8 8 8 9 10 10 11 11 11 12 12 13 8
9 8 9 8 9 9 8 8 5 4 3 3 3 5 8 7 8 8 7 7 7 7 7 7 7 6 7 7 7 6 6 7 6 7 2 0 1 5 4 4 4 4 5 6 7 7 7 8 8 9 8 8 9 9 9 9 10 11 11 12 9 8
9 9 9 9 9 9 8 8 5 4 4 3 2 4 6 6 6 8 8 8 8 8 6 6 6 7 6 5 6 6 6 5 6 5 5 6 2 3 4 4 5 6 4 3 3 5 6 6 7 7 8 8 8 9 9 9 7 9 11 9 6 6
10 9 9 10 10 9 8 7 4 4 3 3 2 6 7 6 7 6 7 9 7 6 7 6 5 6 6 5 5 6 5 5 4 4 5 6 6 5 3 1 2 5 7 4 4 4 3 3 4 6 6 7 7 8 10 10 7 6 5 6 5 4
10 10 9 9 8 9 10 6 3 4 3 2 2 6 7 7 7 7 7 6 6 6 5 5 5 5 6 6 5 5 5 6 6 5 5 5 4 5 3 0 1 1 5 5 6 6 3 2 3 3 3 2 1 2 4 1 3 3 4 5 5 4
Wind_Direction
197 194 196 198 197 193 191 184 179 181 182 184 185 185 185 182 181 179 178 181 178 179 183 180 178 178 177 171 161 155 162 162 158 158 143 126 136 136 140 144 139 135 134 130 128 128 122 113 110 104 101 95 109 117 128 147 147 123 114 117 113 120
196 192 190 191 192 189 186 181 178 183 182 180 186 182 177 174 177 175 180 183 182 181 179 184 181 174 172 168 161 160 169 165 159 148 146 148 137 137 141 146 143 143 141 141 136 131 127 124 119 119 115 118 128 145 151 159 152 122 121 124 114 123
194 194 192 188 184 184 180 182 185 186 182 184 181 179 178 181 180 178 183 179 186 177 181 178 174 171 170 166 171 166 161 158 157 153 141 136 145 143 149 151 149 146 144 141 143 141 140 135 133 129 131 136 150 165 161 156 159 136 132 129 128 129
187 186 177 178 178 184 189 189 184 186 188 186 181 180 183 180 183 183 180 182 179 182 179 175 173 173 168 169 169 167 155 153 159 148 142 149 142 149 150 150 146 145 143 142 142 142 140 136 131 134 139 152 159 164 173 168 156 143 139 139 138 142
185 184 183 187 191 191 189 187 188 190 189 184 186 183 188 184 184 181 178 178 178 182 178 170 172 170 173 168 163 159 152 152 149 152 152 148 145 148 153 150 147 146 145 143 145 145 142 142 138 145 152 163 168 170 176 175 164 158 153 157 157 151
176 178 186 191 195 196 195 194 192 191 191 190 185 191 183 182 181 178 177 178 179 175 171 175 169 167 165 168 164 158 154 150 150 149 147 145 144 149 148 148 146 146 150 144 147 149 146 145 148 152 167 173 179 183 175 170 171 168 166 158 155 155
189 195 195 196 192 196 201 197 195 194 194 187 191 190 183 182 179 176 177 175 174 173 174 170 166 167 170 165 160 158 153 150 147 155 152 149 151 149 144 146 149 148 151 156 158 157 156 156 155 162 171 179 188 191 176 170 166 171 170 166 161 163
197 199 200 202 199 194 197 201 197 196 194 197 190 185 180 183 175 177 173 175 175 178 181 178 171 175 166 162 157 159 158 154 156 156 155 159 151 151 155 151 158 158 158 156 157 155 155 156 159 166 169 174 178 180 178 174 169 169 165 164 168 174
210 207 202 203 202 198 195 196 198 198 196 195 193 186 178 178 176 176 177 178 179 179 186 182 176 169 169 168 161 156 161 161 160 162 162 166 160 156 153 156 153 161 154 152 152 159 157 156 157 164 166 173 181 177 171 164 166 167 163 169 174 182
216 211 206 201 203 200 202 199 200 200 198 195 188 185 179 175 176 179 181 178 182 186 186 181 175 171 158 159 158 167 166 163 164 167 164 164 166 168 166 159 157 150 155 152 153 149 145 147 156 162 166 173 175 172 175 170 164 166 172 173 182 187
215 211 206 204 194 201 203 202 201 200 203 198 189 185 187 174 173 181 183 180 185 187 178 172 174 170 167 167 168 173 173 172 172 170 168 172 170 169 167 163 158 150 149 143 145 146 148 161 171 173 170 165 181 183 170 168 170 168 167 174 185 196
215 208 200 200 202 202 202 202 202 199 196 196 188 186 187 171 179 180 185 185 184 176 171 170 170 171 170 171 179 179 174 173 173 172 172 175 172 165 162 160 161 163 162 157 159 161 170 179 180 177 180 185 178 167 166 164 170 172 173 176 185 198
216 201 203 209 205 203 201 202 199 195 198 195 188 188 180 175 180 183 184 187 178 169 166 169 174 171 176 180 179 177 177 177 176 174 173 171 169 166 163 160 163 169 171 174 172 174 177 174 173 179 187 186 183 175 168 170 173 180 180 185 189 200
212 208 212 213 209 202 198 198 194 191 201 189 187 183 171 180 184 184 185 183 173 172 173 176 174 176 181 180 180 177 177 171 170 172 172 169 166 167 162 168 176 175 172 169 167 170 172 180 182 184 187 188 186 182 175 168 174 181 192 194 198 201
214 213 218 214 206 201 204 188 180 198 192 183 182 163 177 185 186 187 185 180 178 178 179 178 178 180 177 177 173 171 168 168 170 171 172 176 172 161 172 181 173 175 171 168 168 176 181 185 183 186 187 189 189 187 179 172 178 186 197 200 200 199
227 222 219 215 208 201 186 184 192 188 174 173 166 174 180 180 184 185 187 181 181 178 176 176 176 179 178 172 168 166 169 170 178 178 175 168 167 177 181 180 179 172 172 176 178 180 180 183 186 187 186 189 193 192 185 178 184 197 198 201 201 205
226 226 220 216 195 175 168 182 179 157 159 165 169 175 174 181 179 183 182 181 178 174 175 174 173 172 169 170 167 168 173 176 176 176 178 177 180 181 183 180 178 182 180 180 180 178 182 184 183 186 189 195 197 197 189 184 189 196 209 210 208 210
221 215 216 178 173 181 178 175 160 159 168 164 170 172 176 176 180 182 180 180 174 172 171 170 170 171 170 171 171 172 176 178 181 181 178 177 179 180 173 182 185 184 184 182 179 176 182 181 186 191 194 198 200 199 194 180 188 200 208 213 213 212
213 209 180 175 176 167 171 158 158 159 156 165 169 167 172 175 182 184 180 177 176 174 172 174 174 173 170 171 172 176 179 179 181 180 170 173 175 177 185 189 191 186 181 179 178 179 184 185 193 195 199 200 202 199 203 195 191 203 214 219 210 200
168 158 162 163 169 166 155 155 157 154 157 164 165 169 175 180 186 181 179 182 180 178 176 176 173 172 170 169 175 177 179 174 169 172 169 176 178 186 189 185 176 180 181 181 185 188 188 194 196 199 203 205 204 202 203 199 190 202 217 230 221 191
172 163 154 156 161 161 149 150 150 154 163 167 170 174 177 184 182 178 182 180 173 171 167 167 169 170 170 174 178 174 172 175 176 168 162 173 173 180 166 168 175 179 189 194 195 185 198 204 202 205 208 207 208 205 208 203 196 198 224 223 228 213
132 149 161 164 161 150 151 150 156 161 165 169 167 175 182 185 185 180 170 164 165 168 168 171 173 175 174 176 173 171 171 159 154 165 171 174 172 167 170 178 186 192 196 188 193 202 207 211 210 208 213 213 213 212 207 213 192 218 225 226 231 228
159 162 162 156 148 150 148 149 149 159 161 162 169 184 188 176 162 162 165 163 164 167 170 170 174 173 173 169 166 162 159 162 165 160 166 171 172 171 175 183 190 196 200 192 202 204 212 208 210 206 212 218 218 218 214 216 220 225 229 233 238 228
130 127 124 136 143 145 149 149 154 156 160 164 182 186 161 153 160 157 155 158 162 164 165 166 166 165 161 157 152 156 164 166 164 169 172 174 174 180 187 186 189 196 202 199 200 202 207 204 198 194 210 216 220 221 221 222 227 223 230 244 248 240
136 139 140 143 144 146 150 148 150 155 157 175 181 153 148 152 150 152 153 155 157 161 163 163 163 161 158 159 163 163 166 161 162 164 165 167 173 181 187 187 187 191 202 209 209 205 205 197 198 195 203 215 219 224 226 230 233 225 218 232 247 246
118 118 126 135 142 147 151 153 152 159 168 173 148 144 142 145 148 147 151 156 161 159 161 163 162 160 160 160 159 159 152 159 162 162 170 171 173 178 187 191 184 190 200 210 217 209 205 198 188 211 207 210 220 224 229 235 240 240 235 226 247 252
131 120 114 121 138 146 152 155 153 156 160 157 144 146 146 146 146 149 154 156 157 159 155 152 154 154 151 151 152 152 157 158 156 162 170 163 172 177 187 193 184 196 206 208 218 218 204 189 193 207 219 217 218 226 230 234 238 241 244 249 250 243
114 118 116 99 108 130 137 144 150 154 160 145 146 144 141 143 146 151 154 151 150 147 141 142 143 147 152 156 163 165 165 164 168 169 168 171 180 182 188 189 185 201 205 215 221 222 205 177 184 204 210 219 221 226 231 235 239 243 244 247 257 259
123 124 124 120 107 115 118 127 123 135 135 144 141 140 141 144 145 142 141 144 140 141 147 149 155 152 153 158 153 151 155 158 165 163 167 178 178 183 190 188 189 197 203 218 223 211 187 192 191 196 195 205 214 224 230 237 244 249 252 255 258 265
133 132 129 128 130 116 113 116 123 135 132 134 137 136 134 136 142 144 148 148 148 153 156 155 153 152 155 161 158 152 154 165 171 172 179 182 182 180 190 187 195 199 202 213 211 193 190 216 217 206 200 197 204 214 214 231 240 242 237 255 263 262
131 133 126 125 122 106 99 98 105 120 129 132 136 136 133 135 134 134 137 141 140 146 151 148 156 158 154 157 162 160 167 172 181 184 187 199 182 185 179 188 202 206 204 194 193 188 213 220 229 233 204 203 199 197 196 214 215 219 224 237 248 263
132 129 123 118 111 104 103 97 85 77 103 127 135 133 131 132 129 129 138 141 142 142 142 142 148 149 151 154 158 144 83 69 158 170 164 182 179 191 198 176 195 195 180 193 214 190 201 213 214 201 204 212 214 218 215 214 215 218 220 237 249 252
133 123 121 127 122 113 109 102 95 94 96 123 133 130 132 133 131 130 136 141 149 155 147 143 142 146 144 149 151 151 145 103 60 111 159 154 161 181 201 205 207 184 180 180 207 236 244 255 253 246 232 226 225 230 236 239 238 238 237 238 242 251
138 133 130 130 119 111 109 100 81 80 71 92 120 130 132 138 139 145 152 145 144 141 143 142 142 142 141 143 148 154 154 153 143 53 36 151 173 182 194 209 216 216 207 202 197 167 287 259 243 241 249 253 254 254 254 253 251 251 251 249 246 241
129 119 120 117 116 108 104 98 70 43 46 44 106 133 130 134 131 133 140 141 142 139 140 141 145 149 148 150 151 153 156 159 164 163 189 16 136 188 201 215 222 231 238 244 247 231 204 199 211 226 240 252 253 254 253 254 258 258 257 255 252 250
118 119 120 117 113 112 106 97 61 23 352 354 57 118 126 130 133 142 150 154 150 144 146 147 149 148 151 149 150 154 160 167 166 168 153 157 96 44 30 31 41 31 18 332 294 259 264 270 267 258 248 246 250 250 250 250 252 253 252 249 247 249
121 117 118 118 114 107 102 83 10 345 342 352 69 107 104 108 113 111 108 120 129 138 143 142 141 139 136 136 140 146 150 146 126 120 130 145 155 160 161 243 340 5 32 34 26 15 349 319 295 280 276 275 274 271 267 259 247 241 239 244 249 247
114 116 116 112 109 102 91 57 3 347 335 343 108 112 111 116 118 117 121 118 115 116 122 125 126 131 135 136 130 123 118 122 125 121 120 114 118 131 136 1 341 286 319 18 44 24 16 8 349 316 293 295 49 49 28 324 268 236 226 221 232 237